Flag for Cyprus Weather past 2 weeks in Paphos, Cyprus

Now
70 °F

Clear.


Feels Like: 70 °F
Forecast: 70 / 83 °F
Wind: 5 mph from Northeast

Location: Paphos Airport

Current Time: Jul 3, 2015 at 2:21:16 AM

Latest Report: Jul 3, 2015 at 2:00 AM


Visibility: 10 mi

Pressure: 29.86 "Hg

Humidity: 78%

Dew point: 63 °F

Location of PaphosLocation

Historic Weather in Paphos — Graph

°F

Paphos temperature yesterday

Maximum temperature yesterday: 82 °F (at 12:00 PM)
Minimum temperature yesterday: 64 °F (at 6:00 AM)
Average temperature yesterday: 76 °F

Past Weeks' High & Low Weather Summary

 TemperatureHumidityPressure
High84 °F (Jun 18, 9:00 AM)94% (Jun 25, 10:30 PM)29.98 "Hg (Jun 25, 10:30 PM)
Low64 °F (Jun 22, 5:00 AM)55% (Jun 18, 9:30 AM)29.65 "Hg (Jun 18, 4:00 AM)
Average75 °F76%29.79 "Hg
* Reported Jun 18 1:00 AM — Jul 3 1:30 AM, Paphos, Weather by CustomWeather, © 2015

Note: Actual official high and low records may vary slightly from our data, if they occured in-between our weather recording intervals... More about our weather records

Advertising

Paphos weather history for previous 24 hours

 ConditionsComfort  
Time TempWeatherWind HumidityBarometerVisibility
1:30 AM
Fri, Jul 3
68 °FClear.5 mph83%29.86 "Hg10 mi
12:30 AM68 °FClear.5 mph78%29.86 "Hg10 mi
12:00 AM72 °FClear.6 mph78%29.89 "Hg10 mi
11:30 PM
Thu, Jul 2
70 °FClear.6 mph78%29.89 "Hg10 mi
11:00 PM72 °FClear.5 mph73%29.89 "Hg10 mi
10:30 PM73 °FClear.5 mph74%29.89 "Hg10 mi
10:00 PM73 °FClear.5 mph74%29.89 "Hg10 mi
9:30 PM73 °FClear.3 mph74%29.86 "Hg10 mi
9:00 PM75 °FSunny.6 mph78%29.86 "Hg10 mi
8:30 PM77 °FSunny.9 mph79%29.86 "Hg10 mi
8:00 PM77 °FSunny.13 mph79%29.86 "Hg10 mi
7:30 PM77 °FSunny.14 mph83%29.86 "Hg10 mi
7:00 PM79 °FPassing clouds.15 mph79%29.86 "HgN/A
6:30 PM79 °FPassing clouds.17 mph79%29.86 "HgN/A
6:00 PM81 °FPassing clouds.17 mph74%29.86 "HgN/A
5:30 PM81 °FPassing clouds.18 mph74%29.86 "HgN/A
5:00 PM81 °FPassing clouds.20 mph74%29.86 "HgN/A
4:30 PM81 °FPassing clouds.20 mph79%29.86 "HgN/A
4:00 PM82 °FPassing clouds.17 mph74%29.86 "HgN/A
3:30 PM82 °FPassing clouds.16 mph74%29.86 "HgN/A
3:00 PM82 °FPassing clouds.17 mph74%29.86 "HgN/A
2:30 PM82 °FPassing clouds.20 mph74%29.86 "HgN/A
2:00 PM82 °FPassing clouds.16 mph74%29.89 "HgN/A
1:30 PM82 °FPassing clouds.15 mph74%29.89 "HgN/A
1:00 PM81 °FPassing clouds.14 mph74%29.89 "HgN/A
12:30 PM82 °FPassing clouds.16 mph70%29.89 "HgN/A
12:00 PM82 °FPassing clouds.17 mph74%29.89 "HgN/A
11:30 AM81 °FPassing clouds.17 mph74%29.89 "HgN/A
11:00 AM81 °FPassing clouds.16 mph74%29.89 "HgN/A
10:30 AM81 °FPassing clouds.14 mph74%29.89 "HgN/A
10:00 AM81 °FPassing clouds.14 mph74%29.89 "HgN/A
9:30 AM79 °FSunny.12 mph79%29.89 "Hg10 mi
9:00 AM79 °FSunny.12 mph79%29.89 "Hg10 mi
8:30 AM79 °FPassing clouds.8 mph79%29.89 "HgN/A
8:00 AM79 °FSunny.10 mph74%29.89 "Hg10 mi
7:00 AM75 °FSunny.5 mph74%29.86 "Hg10 mi
6:30 AM70 °FPassing clouds.6 mph69%29.86 "HgN/A
6:00 AM64 °FClear.2 mph78%29.86 "Hg10 mi
5:30 AM66 °FMild.5 mph73%29.86 "HgN/A
5:00 AM66 °FMild.7 mph78%29.86 "HgN/A
4:30 AM70 °FMild.6 mph88%29.86 "HgN/A
4:00 AM70 °FMild.6 mph88%29.86 "HgN/A
3:30 AM70 °FMild.5 mph83%29.86 "HgN/A
3:00 AM72 °FClear.5 mph88%29.86 "Hg10 mi
2:30 AM73 °FClear.3 mph89%29.86 "Hg10 mi
2:00 AM72 °FClear.6 mph88%29.89 "Hg10 mi
Weather by CustomWeather, © 2015

See weather overviewHow to use our weather pages